Kuchera_Ratio
0.0 0.0 0.0 0.0 0.0 0.0 0.0 0.0 0.0 0.0 0.0 0.0 0.0 0.0 0.0 0.0 0.0 0.0 0.0 0.0 0.0 0.0 0.0 0.0 0.0 0.0 0.0
0.0 0.0 0.0 0.0 0.0 0.0 0.0 0.0 0.0 0.0 0.0 0.0 0.0 0.0 0.0 0.0 0.0 0.0 0.0 0.0 0.0 0.0 0.0 0.0 0.0 0.0 0.0
0.0 0.0 0.0 0.0 0.0 0.0 0.0 0.0 0.0 0.0 0.0 0.0 0.0 0.0 0.0 0.0 0.0 0.0 0.0 0.0 0.0 0.0 0.0 0.0 0.0 0.0 0.0
0.0 0.0 0.0 0.0 0.0 0.0 0.0 0.0 0.0 0.0 0.0 0.0 0.0 0.0 0.0 0.0 0.0 0.0 0.0 0.0 0.0 0.0 0.0 0.0 0.0 0.0 0.0
0.0 0.0 0.0 0.0 0.0 0.0 0.0 0.0 0.0 0.0 0.0 0.0 0.0 0.0 0.0 0.0 0.0 0.0 0.0 0.0 0.0 0.0 0.0 0.0 0.0 0.0 0.0
0.0 0.0 0.0 0.0 0.0 0.0 0.0 0.0 0.0 0.0 0.0 0.0 0.0 0.0 0.0 0.0 0.0 0.0 0.0 0.0 0.0 0.0 0.0 0.0 0.0 0.0 0.0
0.0 0.0 0.0 0.0 0.0 0.0 0.0 0.0 0.0 0.0 0.0 0.0 0.0 0.0 0.0 0.0 0.0 0.0 0.0 0.0 0.0 0.0 0.0 0.0 0.0 0.0 0.0
0.0 0.0 0.0 0.0 0.0 0.0 0.0 0.0 0.0 0.0 0.0 0.0 0.0 0.0 0.0 0.0 0.0 0.0 0.0 0.0 0.0 0.0 0.0 0.0 0.0 0.0 0.0
0.0 0.0 0.0 0.0 0.0 0.0 0.0 0.0 0.0 0.0 0.0 0.0 0.0 0.0 0.0 0.0 0.0 0.0 0.0 0.0 0.0 0.0 0.0 0.0 0.0 0.0 0.0
0.0 0.0 0.0 0.0 0.0 0.0 0.0 0.0 0.0 0.0 0.0 0.0 0.0 0.0 0.0 0.0 0.0 0.0 0.0 0.0 0.0 0.0 0.0 0.0 0.0 0.0 0.0
0.2 0.1 0.0 0.0 0.0 0.0 0.0 0.0 0.0 0.0 0.6 0.6 0.0 0.0 0.1 0.5 0.0 0.0 0.0 0.0 0.0 0.0 0.0 0.0 0.0 0.0 0.0
1.2 0.5 0.0 1.7 1.3 0.8 0.8 1.3 0.8 0.7 1.1 2.3 2.7 3.1 3.0 1.9 1.2 1.3 0.9 1.3 1.0 0.1 0.0 0.0 0.0 0.0 0.0
4.4 4.0 3.4 2.8 2.8 3.1 3.3 3.8 4.4 4.6 5.0 5.3 5.2 5.3 5.8 6.0 5.2 4.9 4.8 3.9 3.1 2.5 0.6 0.0 0.0 0.0 0.0
5.6 5.7 5.5 5.7 5.4 5.1 4.8 4.2 3.8 4.3 4.5 3.5 6.2 6.6 7.7 6.8 6.9 7.7 5.6 8.2 3.9 3.1 1.9 0.8 0.0 0.0 0.0
6.7 6.5 6.0 5.5 5.1 4.8 4.5 4.7 4.7 4.4 4.9 6.6 6.5 6.3 6.3 7.0 8.5 7.3 6.8 6.1 4.7 5.1 4.9 4.9 2.0 0.0 0.0
7.6 7.0 6.4 6.0 5.9 6.9 8.1 8.2 8.0 8.6 8.8 9.4 9.4 9.5 8.9 8.3 4.1 8.5 7.6 7.3 5.6 5.0 5.5 7.9 6.5 1.8 0.0
9.6 9.5 9.6 10.0 10.0 9.6 9.8 9.8 9.7 10.2 10.7 11.2 12.0 12.4 12.4 10.3 5.4 0.0 7.8 7.2 6.0 6.6 6.9 7.6 8.0 4.5 1.9